Погода в Элисте

Погода в Элисте : погода сейчас, прогноз погоды и архив. Всё, что Вы хотите узнать о погоде в Элисте!

Поиск расширенной информации на нашем сайте:

Полезная информация: Батарейка philips LR14 Батарейки LR14 BL, LR20 BL.

Другие новости

Новости СМИ2

Главная страница сайта

Новости сайта

02.10.2013

Напоминаем, что на нашем новом сайте вы можете получить высокодетализированные прогнозы погоды по пунктам России, СНГ и мира (включающие важные для авиации метеовеличины, такие как направление и скорость ветра, видимость, явления погоды, количество и форма облачности, нижняя и верхняя граница облачности), а также ознакомиться с разнообразными материалами по авиационной метеорологии и подборкой полезных ссылок на эту тему.

Сайт Метеоцентр.Азия посвящён разработке технологий оптимизации авиаметеорологического обслуживания, включая проектирование и перспективное создание нескольких автоматизированных авиаметеорологических систем:
- система выпуска высокодетальных прогностических карт явлений погоды для нижнего воздушного пространства по России и ближнему зарубежью;
- система верификации прогнозов TAF (выпускаемых синоптиками официальных АМСГ РФ и ближнего зарубежья) и AUTOTAF (выпускаемых сайтом Метеоцентр.Азия) - выявление ошибок, онлайн-сопоставление с фактической погодой METAR, автоматическое внесение коррективов в прогнозы при резком отклонении фактической погоды от прогноза, подсчёт оправдываемости прогнозов по элементам и в целом;
- система обработки, анализа и отображения авиаметеорологической информации для применения провайдерами метеорологической информации.

Рекомендуем: Наши контакты агентство недвижимости гарантия.

Погода в Элисте - сегодня

Время (UTC), дата Ветер
(°,м/с) 
Видим.   Явления Облачность Т
(°С)
Тd
(°С)
f(%) Тe
(°С)
Pmin
(гПа)
dP
(гПа)
Po
(мм)
O2
(г/м3)
Тmin Tmax R s Состояние
почвы
03 24.02.17 270 (З) 6{12}  10 км    8/0 средняя 
[Ac trans]
+2.7 +1.4 91 1007.2  2.6  739  295  +1.9    15     
06 24.02.17 260 (З) 5{13}  10 км    4/0 средняя, верхняя 
[Ac trans|Ci fib]
+2.1 +0 86 -1  1013  2.6  742  296  +1.1         
09 24.02.17 270 (З) 20000 м    10/0 средняя 
[Ac As]
+5.2 +0.1 70 +3  1013.4  0.6  742  293           
12 24.02.17 210 (ЮЗ) 20000 м    10/10 600 м 
[Sc diur, vesp]
+5 +1.5 78 +4  1013.5  0.1  742  293           
15 24.02.17 200 (Ю) 10 км  {ливн. осадки}  10/10 300 м кучево-дожд. 
[Cb cap]
+4.6 +2.5 86 +2  1013.6  742  294    +5.4       
18 24.02.17 200 (Ю) 7{11}  10 км  {ливн. осадки}  6/0 средняя 
[Ac trans]
+4.7 +2.6 86 +2  1014.2  0.6  743  294           
21 24.02.17 210 (ЮЗ) 7-10{11}  10 км    9/0 средняя 
[Ac trans]
+6 +2.5 78 +3  1013.6  -0.5  742  292           
00 25.02.17 210 (ЮЗ) 5{11}  10 км    8/0 средняя 
[Ac trans]
+4.7 +1.5 80 +3  1013.9  0.2  742  294           
03 25.02.17 220 (ЮЗ) 10 км    3/0 средняя 
[Ac trans]
+4.8 +1 76 +4  1014.1  0.2  743  294  +4         
06 25.02.17 220 (ЮЗ) 20000 м    9/0 средняя 
[Ac trans]
+7.1 +1.4 67 +6  1014.8  0.9  743  292           
09 25.02.17 210 (ЮЗ) 20000 м    9/0 средняя 
[Ac trans]
+9.2 +2.5 63 +7  1014.3  -0.3  743  289           
12 25.02.17 230 (ЮЗ) 20000 м    10/0 средняя, верхняя 
[Ac cast|Cs]
+11.9 +3.6 57 +12  1012.4  -1.7  742  286           
15 25.02.17 230 (ЮЗ) 10 км    10/3 600 м средняя 
[Sc|Ac und]
+10.1 +3.7 64 +9  1011  -1.5  741  287    +11.9       
18 25.02.17 260 (З) 10 км    10/8 600 м средняя 
[Sc|Ac und]
+8.5 +3.7 72 +7  1010.3  -0.8  740  289           
21 25.02.17 270 (З) 11-17{18}  10 км  слаб. ливневой дождь  10/10 300 м кучево-дожд. 
[Cb cap]
+7.7 +5.1 84 +4  1010.3  740  289           
00 26.02.17 320 (СЗ) 9-14{20}  10 км  {ливн. осадки}  9/9 300 м 
[Sc]
+1 -1.1 86 -3  1012.9  1.9  741  298           
03 26.02.17 320 (СЗ) 9-13{15}  10 км  {ливн. осадки}  10/10 300 м кучево-дожд. 
[Cb cap]
-1.1 -3.9 81 -6  1017.8  4.6  745  302  -1.1       
06 26.02.17 290 (З) 7-10{14}  20000 м  {ливн. осадки}  3/3 600 м 
[Sc]
-0.7 -4.9 73 -5  1022.2  4.3  748  303  -1.7         
09 26.02.17 270 (З) 9-12{15}  20000 м    3/3 1000 м 
[Cu hum]
+1.2 -4.6 65 -3  1023.5  1.5  749  301           
12 26.02.17 270 (З) 9-15{16}  20000 м    5/5 600 м кучево-дожд. 
[Cb cap]
+1.6 -4.2 65 -3  1023.8  0.3  749  301           
15 26.02.17 280 (З) 6{17}  10 км    5/3 600 м кучево-дожд., средняя, верхняя 
[Cb cap|Ac trans|Ci fib]
+0.6 -5.4 64 -3  1024.7  0.8  750  302    +2.7       
18 26.02.17 280 (З) 10 км    8/0 средняя 
[Ac trans]
-0.5 -4.6 74 -3  1025.3  0.6  750  303           
21 26.02.17 250 (З) 10 км    10/10 600 м 
[Sc]
-0.7 -4.2 77 -3  1025.8  0.5  751  304           
00 27.02.17 210 (ЮЗ) 10 км    8/0 средняя 
[Ac trans]
-2.2 -4.1 87 -3  1025.6  -0.4  750  305           
03 27.02.17 220 (ЮЗ) 10 км    6/0 средняя, верхняя 
[Ac trans|Ci fib]
-1.6 -4.1 83 -4  1025.3  -0.2  750  305  -2.4         
Время (UTC), дата Ветер
(°,м/с) 
Видим.   Явления Облачность Т
(°С)
Тd
(°С)
f(%) Тe
(°С)
Pmin
(гПа)
dP
(гПа)
Po
(мм)
O2
(г/м3)
Тmin Tmax R s Состояние
почвы

Для получения пояснительной информации подведите курсор к названию столбца.

ПОГОДА в Элисте - архив

Всё, что Вы хотите узнать о погоде в Элисте - удобно и подробно!

Выберите нужную дату (начиная с 1 января 2015* года) и нажмите кнопку "Найти".
Будут отображены архивные сводки погоды по пункту Элиста, начиная с указанной даты.


Отображать данные в формате CSV (для использования в таблицах Excel)


Внимание! Наш архив погоды предназначен исключительно для личного некоммерческого использования в познавательных целях. Если Вам необходимы официальные справки о состоянии погоды (для производственных, юридических, коммерческих и т.п. целей), обращайтесь в органы Росгидромета.

*Примечание: данная дата относится к архиву по метеостанциям СССР (Россия, СНГ, Балтия).
Архив по метеостанциям Зарубежной Европы и Азии (кроме Китая) хранится 10 дней, по другим регионам земного шара (Китай, Африка, Америка, Австралия, Океания) - 1 день.

Элиста - район местоположения метеостанции


Название, широта, долгота, высота метеостанции:
Элиста 46.4°ш. 44.3°д. 155 м над ур. моря [Российская Федерация]

Дополнительная информация

В oтличие oт бoльшинства пoгoдных сайтoв мы публикуем пoдрoбную метеoинфoрмацию в детальнoм прoфессиoнальнoм фoрмате.

Характеристики температуры и влажнoсти вoздуха измеряются на высoте 2 м в тени вдали oт зданий и деревьев.
Скoрoсть ветра измеряется на высoте 10 м (на урoвне рoста челoвека скoрoсть ветра ниже в 1.5-2 раза). Если метеoстанция нахoдится в гoрoде или в лесу, тo скoрoсть ветра занижена на 2-4 м/с пo сравнению с oткрытым местoм. Скoрoсть ветра над акватoриями крупных рек и oзёр, а также на вершинах хoлмoв на 2-5 м/с выше, чем в oбычных услoвиях.
Атмoсфернoе давление в разных тoчках местнoсти мoжет значительнo oтличаться oт давления на метеoстанции, в зависимoсти oт услoвий рельефа (при пoдъёме на 10 м давление пoнижается примернo на 1 мм рт.ст.).